This demonstration page uses our WeatherBlox Daily Observations layout. Learn more.

Left ArrowRight Arrow

39.12711, -84.51439

Hourly Observations for June 27, 2016

Temp ( °F °C ) Dew Point ( °F °C ) Humidity (%) Winds ( mph kmh ) Pressure ( in mb ) Visibility ( mi km ) Precip ( " mm )
12:53 am 00:53 Mostly Clear 76 24.4 75 23.9 97 97 NNE 3 6 30.01 1016 8 13 N/A
1:53 am 01:53 Mostly Cloudy 78 25.6 74 23.3 87 87 N N/A 30.02 1017 10 16 N/A
2:53 am 02:53 Clear 76 24.4 74 23.3 94 94 N N/A 29.99 1016 9 14 N/A
3:53 am 03:53 Clear 75 23.9 74 23.3 96 96 N N/A 29.99 1016 8 13 N/A
4:53 am 04:53 Clear with Mist and Fog 73 22.8 73 22.8 100 100 SSW 3 6 30.01 1016 6 10 N/A
5:53 am 05:53 Partly Cloudy 76 24.4 72 22.2 88 88 NNW 6 9 30.02 1017 9 14 N/A
6:53 am 06:53 Cloudy 77 25 71 21.7 82 82 N 5 7 30.03 1017 10 16 N/A
7:53 am 07:53 Partly Cloudy 77 25 71 21.7 82 82 N 7 11 30.04 1017 10 16 N/A
8:53 am 08:53 Sunny 79 26.1 72 22.2 79 79 VRB 5 7 30.05 1018 10 16 N/A
9:53 am 09:53 Sunny 82 27.8 72 22.2 72 72 NE 7 11 30.04 1017 10 16 N/A
10:53 am 10:53 Sunny 83 28.3 69 20.6 63 63 N 5 7 30.05 1018 10 16 N/A
11:53 am 11:53 Sunny 84 28.9 66 18.9 55 55 NNE 8 13 30.06 1018 10 16 N/A
12:53 pm 12:53 Cloudy 85 29.4 69 20.6 59 59 N N/A 30.05 1018 10 16 N/A
1:53 pm 13:53 Mostly Cloudy 86 30 65 18.3 49 49 NNE 7 11 30.03 1017 10 16 N/A
2:53 pm 14:53 Mostly Sunny 88 31.1 58 14.4 36 36 NW 9 15 30.01 1016 10 16 N/A
3:53 pm 15:53 Sunny 89 31.7 64 17.8 43 43 NNW 10 17 29.99 1016 10 16 N/A
4:53 pm 16:53 Sunny 90 32.2 58 14.4 34 34 N 9 15 29.97 1015 10 16 N/A
5:53 pm 17:53 Sunny 88 31.1 59 15 38 38 NNW 8 13 29.97 1015 10 16 N/A
6:53 pm 18:53 Sunny 88 31.1 60 15.6 39 39 W 6 9 29.97 1015 10 16 N/A
7:53 pm 19:53 Sunny 86 30 63 17.2 46 46 WNW 7 11 29.98 1015 10 16 N/A
8:53 pm 20:53 Sunny 85 29.4 61 16.1 45 45 WNW 6 9 29.98 1015 10 16 N/A
9:53 pm 21:53 Clear 73 22.8 69 20.6 87 87 N N/A 29.99 1016 10 16 N/A
10:53 pm 22:53 Clear 73 22.8 67 19.4 81 81 S 3 6 30.01 1016 10 16 N/A
11:53 pm 23:53 Clear 72 22.2 69 20.6 91 91 SSW 6 9 30.01 1016 10 16 N/A

Powered by AerisWeather